Regional Weather Roundup
Issued by NWS Kansas City/Pleasant Hill, MO

Home | Current Version | Previous Version | Text Only | Print | Product List | Glossary On
Versions: 1 2 3 4 5 6 7 8 9 10 11 12 13 14 15 16 17 18 19 20 21 22 23 24 25 26 27 28 29 30 31 32 33 34 35 36 37 38 39 40 41 42 43 44 45 46 47 48 49 50
000
ASUS43 KEAX 171804
RWREAX

WEATHER ROUNDUP FOR EASTERN KANSAS AND NORTHWEST MISSOURI
NATIONAL WEATHER SERVICE KANSAS CITY/PLEASANT HILL MO
100 PM CDT THU APR 17 2014

KSZ040-057-103>105-MOZ028-029-037-043-171900-
...KANSAS CITY METROPOLITAN AREA...

CITY           SKY/WX    TMP DP  RH WIND       PRES   REMARKS
K.C. INTL      CLOUDY    44  31  60 VRB5      30.30F
6HR MIN TEMP:  37; 6HR MAX TEMP:  44;

K.C. DOWNTOWN  CLOUDY    44  31  60 N6        30.30F
6HR MIN TEMP:  39; 6HR MAX TEMP:  44;

LEES SUMMIT    CLOUDY    42  31  64 N7        30.30F
6HR MIN TEMP:  38; 6HR MAX TEMP:  43;

OLATHE - IXD   CLOUDY    42  31  64 N8        30.31S
6HR MIN TEMP:  37; 6HR MAX TEMP:  43;

OLATHE - OJC   CLOUDY    43  31  62 N9        30.29F
6HR MIN TEMP:  37; 6HR MAX TEMP:  43;

LAWRENCE       CLOUDY    46  32  58 VRB6      30.31F

$$

MOZ001>008-011>017-020>025-030>033-038>040-044>046-053-054-171900-
...NORTHERN AND CENTRAL MISSOURI...

CITY           SKY/WX    TMP DP  RH WIND       PRES   REMARKS
ST. JOSEPH     CLOUDY    44  29  55 CALM      30.32F
6HR MIN TEMP:  36; 6HR MAX TEMP:  45;

MOSBY          FAIR      41  32  70 N5        30.31F
WHITEMAN AFB   CLOUDY    44  33  65 N6        30.29F
6HR MIN TEMP:  40; 6HR MAX TEMP:  44;

CLINTON        PTSUNNY   50  39  66 N7        30.29S
SEDALIA        CLOUDY    48  37  65 NW7       30.30S
6HR MIN TEMP:  42; 6HR MAX TEMP:  48;

WARSAW         NOT AVBL
MARSHALL         N/A     46  37  71 NW8       30.31R
CHILLICOTHE      N/A     44  31  60 N7        30.32F
6HR MIN TEMP:  39; 6HR MAX TEMP:  45;

MOBERLY        CLOUDY    48  34  57 NW3       30.29F
KIRKSVILLE     CLOUDY    46  32  58 VRB3      30.29S
6HR MIN TEMP:  39; 6HR MAX TEMP:  46;


$$

MOZ041-047>049-056>058-063>065-088>090-097-171900-
...EASTERN AND SOUTHERN MISSOURI...

CITY           SKY/WX    TMP DP  RH WIND       PRES   REMARKS
ST. LOUIS INTL CLOUDY    63  36  36 W12       30.25F
6HR MIN TEMP:  46; 6HR MAX TEMP:  65;

SPIRIT OF STL  PTSUNNY   61  35  37 W5        30.25S
COLUMBIA       CLOUDY    53  38  56 CALM      30.27S
JEFFERSON CITY CLOUDY    54  37  52 W7        30.27S
MEXICO         CLOUDY    50  39  66 W3        30.28R
ROLLA          CLOUDY    58  37  45 SW7       30.24F
LEBANON        PTSUNNY   63  34  34 NW3       30.24F
OSAGE BEACH    PTSUNNY   57  34  41 CALM      30.27F
SPRINGFIELD    MOSUNNY   61  35  37 CALM      30.22F
BRANSON        MOSUNNY   61  34  36 S5        30.23F
NEVADA         PTSUNNY   52  39  62 N6        30.28F
JOPLIN         PTSUNNY   57  38  48 VRB6      30.25F
WEST PLAINS    MOSUNNY   62  30  29 SE6       30.23F

$$

IAZ060-094-KSZ022-034>040-054-083-096-NEZ052-066-093-171900-
...KANSAS...SOUTHEAST NEBRASKA AND IOWA...

CITY           SKY/WX    TMP DP  RH WIND       PRES   REMARKS
TOPEKA         CLOUDY    46  32  58 NE7       30.32F
6HR MIN TEMP:  37; 6HR MAX TEMP:  46;

MANHATTAN      PTSUNNY   45  30  55 E5        30.31F
EMPORIA        CLOUDY    41  30  65 NE8       30.31S
CHANUTE        CLOUDY    47  34  60 N6        30.31R
WICHITA        LGT RAIN  40  31  70 N9        30.31F WCI  34
OMAHA          MOSUNNY   46  26  45 NW9       30.32F
LINCOLN        SUNNY     48  27  44 VRB5      30.32F
FALLS CITY     MOSUNNY   46  28  49 N9        30.30F
LAMONI         SUNNY     46  30  53 NW8       30.27F
DES MOINES     PTSUNNY   44  29  55 N12       30.30F

$$




USA.gov is the U.S. government's official web portal to all federal, state and local government web resources and services.